This is the latest recevied weather packets stored in our database for station/object KC2TER. If no packets are shown the sender has not sent any weather packets the latest 10 day(s).
| Time | Temp. | Humidity | Pressure | Rain* | Wind** | Luminosity | Snow |
|---|---|---|---|---|---|---|---|
| 1777480532 | 13.33° C | 73% | 1015.2 hPa | 0 mm | - | 574 W/m² | - |
| 1777480228 | 12.78° C | 74% | 1015.9 hPa | 0 mm | - | 498 W/m² | - |
| 1777479925 | 13.33° C | 73% | 1015.8 hPa | 0 mm | - | 327 W/m² | - |
| 1777479622 | 13.33° C | 73% | 1015.4 hPa | 0 mm | - | 298 W/m² | - |
| 1777479320 | 13.33° C | 74% | 1015.6 hPa | 0 mm | - | 406 W/m² | - |
| 1777479016 | 13.33° C | 74% | 1015.7 hPa | 0 mm | - | 458 W/m² | - |
| 1777478713 | 13.33° C | 76% | 1015.8 hPa | 0 mm | - | 429 W/m² | - |
| 1777478409 | 13.33° C | 76% | 1015.4 hPa | 0 mm | - | 409 W/m² | - |
| 1777478106 | 13.33° C | 76% | 1015.7 hPa | 0 mm | - | 530 W/m² | - |
| 1777477802 | 12.78° C | 77% | 1015.6 hPa | 0 mm | - | 499 W/m² | - |
| 1777477498 | 12.22° C | 77% | 1015.8 hPa | 0 mm | - | 447 W/m² | - |
| 1777477195 | 12.78° C | 76% | 1015.9 hPa | 0 mm | - | 296 W/m² | - |
| 1777476891 | 12.78° C | 76% | 1015.9 hPa | 0 mm | - | 274 W/m² | - |
| 1777476589 | 13.33° C | 73% | 1016 hPa | 0 mm | - | 301 W/m² | - |
| 1777476285 | 13.89° C | 73% | 1016 hPa | 0 mm | - | 501 W/m² | - |
| 1777475980 | 13.33° C | 74% | 1015.8 hPa | 0 mm | - | 464 W/m² | - |
| 1777475677 | 12.78° C | 73% | 1015.8 hPa | 0 mm | - | 402 W/m² | - |
| 1777475373 | 13.33° C | 72% | 1015.7 hPa | 0 mm | - | 314 W/m² | - |
| 1777475068 | 13.33° C | 71% | 1015.6 hPa | 0 mm | - | 281 W/m² | - |
| 1777474765 | 13.33° C | 73% | 1015.6 hPa | 0 mm | - | 376 W/m² | - |
| 1777474461 | 13.33° C | 72% | 1015.9 hPa | 0 mm | - | 335 W/m² | - |
| 1777474158 | 13.33° C | 71% | 1015.9 hPa | 0 mm | - | 256 W/m² | - |
| 1777473856 | 13.33° C | 72% | 1015.8 hPa | 0 mm | - | 273 W/m² | - |
| 1777473553 | 13.89° C | 69% | 1016 hPa | 0 mm | - | 305 W/m² | - |
| 1777473249 | 13.89° C | 69% | 1016.1 hPa | 0 mm | - | 357 W/m² | - |
* Rain latest hour (hover to see other rain measurements)
** Current wind speed in m/s (hover to see current wind gust speed)